Flag for Canada Weather past 2 weeks in Pond Inlet, Nunavut, Canada

27 °F

Light snow. Mostly cloudy.

Feels Like: 17 °F
Forecast: 25 / 28 °F
Wind: 10 mph from South

Location: Pond Inlet

Current Time: Oct 4, 2015 at 1:12:48 PM

Latest Report: Oct 4, 2015 at 12:00 PM

Visibility: 9 mi

Pressure: 30.10 "Hg

Humidity: 86%

Dew point: 23 °F

Location of Pond InletLocation

Historic Weather in Pond Inlet — Graph


Pond Inlet temperature yesterday

Maximum temperature yesterday: 32 °F (at 12:00 AM)
Minimum temperature yesterday: 27 °F (at 7:00 AM)
Average temperature yesterday: 29 °F

Past Weeks' High & Low Weather Summary

High39 °F (Sep 20, 2:00 PM)100% (Sep 19, 10:00 PM)30.25 "Hg (Sep 19, 10:00 PM)
Low16 °F (Sep 27, 4:48 AM)55% (Sep 24, 11:00 AM)29.33 "Hg (Oct 1, 11:00 PM)
Average28 °F81%29.87 "Hg
* Reported Sep 19 12:00 Noon — Oct 4 12:00 Noon, Pond Inlet, Weather by CustomWeather, © 2015

Note: Actual official high and low records may vary slightly from our data, if they occured in-between our weather recording intervals... More about our weather records


Pond Inlet weather history for previous 24 hours

Time TempWeatherWind HumidityBarometerVisibility
12:00 PM
Sun, Oct 4
27 °FLight snow. Mostly cloudy.10 mph86%30.10 "Hg9 mi
11:00 AM25 °FLight snow. Overcast.10 mph93%30.11 "Hg7 mi
10:04 AM25 °FLight snow. More clouds than sun.12 mph100%30.12 "Hg3 mi
9:57 AM25 °FLight snow. Mostly cloudy.13 mph100%30.12 "Hg2 mi
9:00 AM25 °FLight snow. Mostly cloudy.12 mph86%30.12 "Hg9 mi
8:00 AM25 °FLight snow. Mostly cloudy.9 mph93%30.13 "Hg9 mi
7:56 AM25 °FLight snow. Mostly cloudy.9 mph93%30.13 "Hg6 mi
7:00 AM27 °FLight snow. Ice fog.3 mph93%30.14 "Hg1 mi
6:00 AM27 °FLight snow. Overcast.8 mph93%30.14 "Hg3 mi
5:47 AM27 °FLight snow. Mostly cloudy.9 mph86%30.14 "Hg5 mi
5:03 AM27 °FLight snow. Mostly cloudy.15 mph80%30.14 "Hg9 mi
4:00 AM28 °FOvercast.18 mph80%30.13 "Hg9 mi
3:00 AM28 °FLight snow. Mostly cloudy.17 mph80%30.13 "Hg9 mi
2:57 AM28 °FLight snow. Mostly cloudy.20 mph80%30.13 "Hg6 mi
2:02 AM28 °FMostly cloudy.18 mph74%30.12 "Hg9 mi
1:02 AM28 °FLight snow. Overcast.18 mph80%30.14 "Hg9 mi
12:03 AM28 °FLight snow. Overcast.20 mph80%30.14 "Hg9 mi
11:04 PM
Sat, Oct 3
28 °FLight snow. Mostly cloudy.16 mph74%30.15 "Hg9 mi
10:00 PM27 °FOvercast.9 mph80%30.16 "Hg9 mi
9:00 PM28 °FOvercast.16 mph74%30.17 "Hg9 mi
8:00 PM28 °FOvercast.18 mph80%30.16 "Hg9 mi
7:00 PM28 °FOvercast.17 mph74%30.17 "Hg9 mi
6:57 PM28 °FOvercast.17 mph80%30.17 "Hg9 mi
6:04 PM28 °FLight snow. Overcast.9 mph80%30.18 "Hg9 mi
5:00 PM28 °FBroken clouds.13 mph74%30.18 "Hg40 mi
4:00 PM30 °FBroken clouds.15 mph69%30.17 "Hg40 mi
3:00 PM28 °FLight snow. Broken clouds.22 mph80%30.17 "Hg40 mi
2:58 PM28 °FLight snow. Broken clouds.20 mph80%30.17 "Hg40 mi
2:00 PM28 °FCloudy.20 mph80%30.18 "Hg40 mi
1:53 PM28 °FCloudy.23 mph80%30.17 "Hg9 mi
1:00 PM28 °FMore clouds than sun.21 mph80%30.17 "Hg9 mi
Weather by CustomWeather, © 2015

See weather overviewHow to use our weather pages